Time,TemperatureF,DewpointF,PressureIn,WindDirection,WindDirectionDegrees,WindSpeedMPH,WindSpeedGustMPH,Humidity,HourlyPrecipIn,Conditions,Clouds,dailyrainin,SolarRadiationWatts/m^2,SoftwareType,DateUTC
2013-04-06 00:03:00,57.7,42.0,29.77,SSE,168,2.0,10.0,57,0.00,,,0.00,0,Custom,2013-04-06 05:03:00,
2013-04-06 00:08:00,57.0,42.0,29.76,SW,222,6.0,10.0,57,0.00,,,0.00,0,Custom,2013-04-06 05:08:00,
2013-04-06 00:13:00,56.9,42.0,29.76,South,177,7.0,9.0,57,0.00,,,0.00,0,Custom,2013-04-06 05:13:00,
2013-04-06 00:18:00,56.9,42.0,29.76,SSW,203,2.0,10.0,57,0.00,,,0.00,0,Custom,2013-04-06 05:18:00,
2013-04-06 00:23:00,57.5,42.0,29.76,SSW,193,2.0,11.0,56,0.00,,,0.00,0,Custom,2013-04-06 05:23:00,
2013-04-06 00:28:00,57.3,42.0,29.76,SSE,164,6.0,8.0,56,0.00,,,0.00,0,Custom,2013-04-06 05:28:00,
2013-04-06 00:33:00,57.3,42.0,29.77,South,190,6.0,9.0,56,0.00,,,0.00,0,Custom,2013-04-06 05:33:00,
2013-04-06 00:38:00,57.2,41.0,29.77,SSW,195,3.0,12.0,55,0.00,,,0.00,0,Custom,2013-04-06 05:38:00,
2013-04-06 00:43:00,56.9,41.0,29.77,South,180,0.0,8.0,55,0.00,,,0.00,0,Custom,2013-04-06 05:43:00,
2013-04-06 00:48:00,57.2,41.0,29.77,South,190,7.0,10.0,55,0.00,,,0.00,0,Custom,2013-04-06 05:48:00,
2013-04-06 00:53:00,56.5,41.0,29.76,SSW,200,8.0,10.0,56,0.00,,,0.00,0,Custom,2013-04-06 05:53:00,
2013-04-06 00:58:00,56.8,41.0,29.76,South,185,6.0,11.0,56,0.00,,,0.00,0,Custom,2013-04-06 05:58:00,
2013-04-06 01:03:00,57.1,41.0,29.76,SSE,163,5.0,10.0,54,0.00,,,0.00,0,Custom,2013-04-06 06:03:00,
2013-04-06 01:08:00,57.0,40.0,29.76,South,187,6.0,10.0,54,0.00,,,0.00,0,Custom,2013-04-06 06:08:00,
2013-04-06 01:13:00,56.9,41.0,29.76,SSW,192,8.0,13.0,55,0.00,,,0.00,0,Custom,2013-04-06 06:13:00,
2013-04-06 01:18:00,56.7,41.0,29.76,South,173,6.0,9.0,55,0.00,,,0.00,0,Custom,2013-04-06 06:18:00,
2013-04-06 01:23:00,56.3,40.0,29.76,SSW,193,0.0,10.0,55,0.00,,,0.00,0,Custom,2013-04-06 06:23:00,
2013-04-06 01:28:00,56.2,40.0,29.76,SSW,196,2.0,9.0,55,0.00,,,0.00,0,Custom,2013-04-06 06:28:00,
2013-04-06 01:33:00,56.1,40.0,29.76,South,170,4.0,11.0,55,0.00,,,0.00,0,Custom,2013-04-06 06:33:00,
2013-04-06 01:38:00,55.8,40.0,29.76,SSW,196,1.0,13.0,56,0.00,,,0.00,0,Custom,2013-04-06 06:38:00,
2013-04-06 01:43:00,56.1,40.0,29.76,SSE,165,5.0,10.0,55,0.00,,,0.00,0,Custom,2013-04-06 06:43:00,
2013-04-06 01:48:00,55.9,40.0,29.76,South,180,5.0,11.0,55,0.00,,,0.00,0,Custom,2013-04-06 06:48:00,
2013-04-06 01:53:00,56.2,40.0,29.76,SSW,193,12.0,12.0,54,0.00,,,0.00,0,Custom,2013-04-06 06:53:00,
2013-04-06 01:58:00,56.5,40.0,29.75,SSE,149,6.0,14.0,54,0.00,,,0.00,0,Custom,2013-04-06 06:58:00,
2013-04-06 02:03:00,56.3,40.0,29.75,South,190,5.0,12.0,53,0.00,,,0.00,0,Custom,2013-04-06 07:03:00,
2013-04-06 02:09:00,56.2,39.0,29.75,South,187,6.0,13.0,53,0.00,,,0.00,0,Custom,2013-04-06 07:09:00,
2013-04-06 02:14:00,56.2,39.0,29.74,SW,234,1.0,12.0,53,0.00,,,0.00,0,Custom,2013-04-06 07:14:00,
2013-04-06 02:19:00,56.3,39.0,29.73,South,182,8.0,13.0,53,0.00,,,0.00,0,Custom,2013-04-06 07:19:00,
2013-04-06 02:25:00,56.2,39.0,29.73,South,175,5.0,12.0,53,0.00,,,0.00,0,Custom,2013-04-06 07:25:00,
2013-04-06 02:30:00,56.5,39.0,29.73,SSE,168,8.0,13.0,52,0.00,,,0.00,0,Custom,2013-04-06 07:30:00,
2013-04-06 02:35:00,56.5,39.0,29.73,SSW,200,4.0,16.0,52,0.00,,,0.00,0,Custom,2013-04-06 07:35:00,
2013-04-06 02:40:00,56.4,40.0,29.72,SSE,156,9.0,13.0,53,0.00,,,0.00,0,Custom,2013-04-06 07:40:00,
2013-04-06 02:45:00,56.5,39.0,29.72,SW,216,8.0,12.0,53,0.00,,,0.00,0,Custom,2013-04-06 07:45:00,
2013-04-06 02:50:00,56.2,39.0,29.72,SSW,197,7.0,12.0,53,0.00,,,0.00,0,Custom,2013-04-06 07:50:00,
2013-04-06 02:55:00,56.1,39.0,29.72,SSW,196,8.0,11.0,53,0.00,,,0.00,0,Custom,2013-04-06 07:55:00,
2013-04-06 03:00:00,56.2,39.0,29.72,SSW,206,6.0,13.0,53,0.00,,,0.00,0,Custom,2013-04-06 08:00:00,
2013-04-06 03:05:00,56.0,39.0,29.72,South,189,6.0,15.0,53,0.00,,,0.00,0,Custom,2013-04-06 08:05:00,
2013-04-06 03:10:00,56.0,40.0,29.72,South,175,9.0,14.0,54,0.00,,,0.00,0,Custom,2013-04-06 08:10:00,
2013-04-06 03:15:00,56.0,40.0,29.72,South,169,9.0,14.0,54,0.00,,,0.00,0,Custom,2013-04-06 08:15:00,
2013-04-06 03:20:00,56.5,40.0,29.71,SSW,195,4.0,13.0,54,0.00,,,0.00,0,Custom,2013-04-06 08:20:00,
2013-04-06 03:25:00,56.3,40.0,29.71,South,188,2.0,13.0,54,0.00,,,0.00,0,Custom,2013-04-06 08:25:00,
2013-04-06 03:30:00,55.8,40.0,29.70,SSW,196,4.0,10.0,54,0.00,,,0.00,0,Custom,2013-04-06 08:30:00,
2013-04-06 03:35:00,56.2,40.0,29.70,South,171,5.0,17.0,55,0.00,,,0.00,0,Custom,2013-04-06 08:35:00,
2013-04-06 03:40:00,56.5,40.0,29.70,South,188,10.0,17.0,55,0.00,,,0.00,0,Custom,2013-04-06 08:40:00,
2013-04-06 03:45:00,56.2,40.0,29.70,South,180,11.0,14.0,54,0.00,,,0.00,0,Custom,2013-04-06 08:45:00,
2013-04-06 03:50:00,56.5,41.0,29.69,SSW,198,6.0,15.0,56,0.00,,,0.00,0,Custom,2013-04-06 08:50:00,
2013-04-06 03:55:00,56.5,41.0,29.69,SSW,194,4.0,15.0,56,0.00,,,0.00,0,Custom,2013-04-06 08:55:00,
2013-04-06 04:00:00,56.6,41.0,29.68,SSE,162,5.0,18.0,55,0.00,,,0.00,0,Custom,2013-04-06 09:00:00,
2013-04-06 04:06:00,56.5,41.0,29.68,South,183,5.0,14.0,56,0.00,,,0.00,0,Custom,2013-04-06 09:06:00,
2013-04-06 04:11:00,56.8,42.0,29.68,SSW,192,10.0,13.0,57,0.00,,,0.00,0,Custom,2013-04-06 09:11:00,
2013-04-06 04:16:00,56.8,42.0,29.68,SSW,203,13.0,13.0,57,0.00,,,0.00,0,Custom,2013-04-06 09:16:00,
2013-04-06 04:22:00,57.1,42.0,29.68,SSW,201,7.0,16.0,57,0.00,,,0.00,0,Custom,2013-04-06 09:22:00,
2013-04-06 04:27:00,57.1,42.0,29.68,South,187,11.0,13.0,58,0.00,,,0.00,0,Custom,2013-04-06 09:27:00,
2013-04-06 04:32:00,57.2,42.0,29.67,South,181,6.0,13.0,57,0.00,,,0.00,0,Custom,2013-04-06 09:32:00,
2013-04-06 04:37:00,57.3,42.0,29.68,SSW,199,12.0,15.0,58,0.00,,,0.00,0,Custom,2013-04-06 09:37:00,
2013-04-06 04:42:00,57.3,42.0,29.67,SW,216,10.0,16.0,57,0.00,,,0.00,0,Custom,2013-04-06 09:42:00,
2013-04-06 04:47:00,57.3,42.0,29.67,South,190,6.0,21.0,57,0.00,,,0.00,0,Custom,2013-04-06 09:47:00,
2013-04-06 04:52:00,57.5,43.0,29.67,SSE,161,5.0,16.0,58,0.00,,,0.00,0,Custom,2013-04-06 09:52:00,
2013-04-06 04:57:00,57.5,43.0,29.67,SSW,192,6.0,16.0,58,0.00,,,0.00,0,Custom,2013-04-06 09:57:00,
2013-04-06 05:02:00,57.5,43.0,29.67,SSW,200,10.0,16.0,58,0.00,,,0.00,0,Custom,2013-04-06 10:02:00,
2013-04-06 05:07:00,57.1,43.0,29.67,SSW,195,7.0,16.0,58,0.00,,,0.00,0,Custom,2013-04-06 10:07:00,
2013-04-06 05:12:00,57.2,43.0,29.67,SSW,201,12.0,15.0,59,0.00,,,0.00,0,Custom,2013-04-06 10:12:00,
2013-04-06 05:17:00,57.1,43.0,29.66,SSW,208,11.0,15.0,59,0.00,,,0.00,0,Custom,2013-04-06 10:17:00,
2013-04-06 05:22:00,57.1,43.0,29.67,South,191,11.0,13.0,59,0.00,,,0.00,0,Custom,2013-04-06 10:22:00,
2013-04-06 05:27:00,57.0,43.0,29.66,SSE,164,7.0,16.0,60,0.00,,,0.00,0,Custom,2013-04-06 10:27:00,
2013-04-06 05:32:00,57.1,43.0,29.67,South,182,9.0,14.0,60,0.00,,,0.00,0,Custom,2013-04-06 10:32:00,
2013-04-06 05:37:00,56.9,43.0,29.66,SSW,203,10.0,11.0,60,0.00,,,0.00,0,Custom,2013-04-06 10:37:00,
2013-04-06 05:42:00,57.0,43.0,29.67,SSW,201,7.0,11.0,60,0.00,,,0.00,0,Custom,2013-04-06 10:42:00,
2013-04-06 05:47:00,56.9,44.0,29.67,SSE,164,5.0,14.0,61,0.00,,,0.00,0,Custom,2013-04-06 10:47:00,
2013-04-06 05:52:00,57.0,44.0,29.67,South,170,8.0,12.0,61,0.00,,,0.00,0,Custom,2013-04-06 10:52:00,
2013-04-06 05:57:00,56.9,44.0,29.67,SSE,167,5.0,10.0,61,0.00,,,0.00,0,Custom,2013-04-06 10:57:00,
2013-04-06 06:02:00,56.9,44.0,29.67,SE,140,15.0,15.0,61,0.00,,,0.00,0,Custom,2013-04-06 11:02:00,
2013-04-06 06:07:00,57.2,44.0,29.65,SE,141,4.0,15.0,61,0.00,,,0.00,0,Custom,2013-04-06 11:07:00,
2013-04-06 06:13:00,57.1,44.0,29.67,South,184,12.0,12.0,61,0.00,,,0.00,0,Custom,2013-04-06 11:13:00,
2013-04-06 06:19:00,57.1,44.0,29.67,South,179,9.0,12.0,61,0.00,,,0.00,0,Custom,2013-04-06 11:19:00,
2013-04-06 06:24:00,57.1,44.0,29.67,South,188,2.0,13.0,61,0.00,,,0.00,0,Custom,2013-04-06 11:24:00,
2013-04-06 06:29:00,57.0,44.0,29.66,South,177,14.0,14.0,61,0.00,,,0.00,0,Custom,2013-04-06 11:29:00,
2013-04-06 06:33:00,57.2,44.0,29.66,South,176,6.0,14.0,61,0.00,,,0.00,0,Custom,2013-04-06 11:33:00,
2013-04-06 06:38:00,57.1,44.0,29.67,SSW,193,3.0,10.0,61,0.00,,,0.00,0,Custom,2013-04-06 11:38:00,
2013-04-06 06:43:00,57.1,44.0,29.67,SSW,203,4.0,6.0,61,0.00,,,0.00,0,Custom,2013-04-06 11:43:00,
2013-04-06 06:49:00,56.8,44.0,29.71,West,267,4.0,5.0,61,0.00,,,0.00,0,Custom,2013-04-06 11:49:00,
2013-04-06 06:54:00,56.7,44.0,29.70,South,189,4.0,5.0,63,0.00,,,0.00,0,Custom,2013-04-06 11:54:00,
2013-04-06 06:59:00,56.8,44.0,29.69,South,178,7.0,8.0,63,0.00,,,0.00,0,Custom,2013-04-06 11:59:00,
2013-04-06 07:04:00,56.8,44.0,29.70,SSW,204,0.0,9.0,63,0.00,,,0.00,0,Custom,2013-04-06 12:04:00,
2013-04-06 07:09:00,57.0,44.0,29.68,South,182,12.0,12.0,63,0.00,,,0.00,0,Custom,2013-04-06 12:09:00,
2013-04-06 07:14:00,56.9,45.0,29.67,South,179,0.0,11.0,63,0.00,,,0.00,0,Custom,2013-04-06 12:14:00,
2013-04-06 07:19:00,56.9,45.0,29.67,South,187,3.0,9.0,64,0.00,,,0.00,0,Custom,2013-04-06 12:19:00,
2013-04-06 07:24:00,57.2,45.0,29.67,SW,229,4.0,14.0,64,0.00,,,0.00,10.92,Custom,2013-04-06 12:24:00,
2013-04-06 07:29:00,57.2,45.0,29.67,SSW,212,5.0,12.0,64,0.00,,,0.00,27.3,Custom,2013-04-06 12:29:00,
2013-04-06 07:34:00,57.4,45.0,29.66,South,184,7.0,12.0,64,0.00,,,0.00,54.21,Custom,2013-04-06 12:34:00,
2013-04-06 07:40:00,58.0,46.0,29.66,South,183,7.0,14.0,63,0.00,,,0.00,72.93,Custom,2013-04-06 12:40:00,
2013-04-06 07:45:00,58.0,46.0,29.66,South,179,6.0,13.0,64,0.00,,,0.00,70.98,Custom,2013-04-06 12:45:00,
2013-04-06 07:50:00,58.3,46.0,29.66,SSW,200,11.0,13.0,63,0.00,,,0.00,70.98,Custom,2013-04-06 12:50:00,
2013-04-06 07:55:00,58.3,46.0,29.66,South,187,7.0,12.0,63,0.00,,,0.00,70.98,Custom,2013-04-06 12:55:00,
2013-04-06 08:01:00,58.3,46.0,29.66,SW,215,10.0,14.0,63,0.00,,,0.00,56.16,Custom,2013-04-06 13:01:00,
2013-04-06 08:07:00,58.5,46.0,29.65,SSW,200,6.0,18.0,63,0.00,,,0.00,38.22,Custom,2013-04-06 13:07:00,
2013-04-06 08:12:00,58.6,46.0,29.64,South,180,10.0,30.0,63,0.00,,,0.00,40.95,Custom,2013-04-06 13:12:00,
2013-04-06 08:17:00,58.8,46.0,29.66,SSE,166,15.0,19.0,63,0.00,,,0.00,47.19,Custom,2013-04-06 13:17:00,
2013-04-06 08:22:00,58.8,46.0,29.66,SSE,164,5.0,14.0,63,0.00,,,0.00,58.11,Custom,2013-04-06 13:22:00,
2013-04-06 08:27:00,59.2,46.0,29.66,SSW,196,7.0,16.0,62,0.00,,,0.00,65.52,Custom,2013-04-06 13:27:00,
2013-04-06 08:32:00,59.4,46.0,29.65,SSW,201,15.0,20.0,62,0.00,,,0.00,71.37,Custom,2013-04-06 13:32:00,
2013-04-06 08:37:00,59.4,46.0,29.65,WSW,258,10.0,17.0,62,0.00,,,0.00,80.34,Custom,2013-04-06 13:37:00,
2013-04-06 08:42:00,59.5,46.0,29.65,SSW,207,8.0,19.0,61,0.00,,,0.00,74.88,Custom,2013-04-06 13:42:00,
2013-04-06 08:47:00,59.6,47.0,29.65,WSW,254,5.0,16.0,62,0.00,,,0.00,55.38,Custom,2013-04-06 13:47:00,
2013-04-06 08:52:00,59.5,46.0,29.65,SSW,199,10.0,17.0,62,0.00,,,0.00,42.9,Custom,2013-04-06 13:52:00,
2013-04-06 08:57:00,59.4,46.0,29.65,SSW,193,11.0,13.0,62,0.00,,,0.00,42.51,Custom,2013-04-06 13:57:00,
2013-04-06 09:02:00,59.5,46.0,29.64,South,187,4.0,14.0,62,0.00,,,0.00,52.65,Custom,2013-04-06 14:02:00,
2013-04-06 09:08:00,59.7,47.0,29.65,SSW,195,7.0,15.0,62,0.00,,,0.00,122.07,Custom,2013-04-06 14:08:00,
2013-04-06 09:13:00,60.2,47.0,29.64,South,179,6.0,14.0,61,0.00,,,0.00,146.64,Custom,2013-04-06 14:13:00,
2013-04-06 09:18:00,60.4,47.0,29.64,SSW,193,4.0,16.0,61,0.00,,,0.00,111.93,Custom,2013-04-06 14:18:00,
2013-04-06 09:23:00,60.3,47.0,29.63,SSW,208,5.0,13.0,60,0.00,,,0.00,81.51,Custom,2013-04-06 14:23:00,
2013-04-06 09:28:00,60.3,47.0,29.63,SSW,196,9.0,16.0,61,0.00,,,0.00,81.9,Custom,2013-04-06 14:28:00,
2013-04-06 09:33:00,60.2,47.0,29.63,South,188,10.0,14.0,61,0.00,,,0.00,112.32,Custom,2013-04-06 14:33:00,
2013-04-06 09:38:00,60.5,47.0,29.63,SSW,208,7.0,18.0,61,0.00,,,0.00,191.88,Custom,2013-04-06 14:38:00,
2013-04-06 09:43:00,61.5,47.0,29.62,South,174,10.0,15.0,60,0.00,,,0.00,228.93,Custom,2013-04-06 14:43:00,
2013-04-06 09:49:00,61.8,47.0,29.62,SSE,163,12.0,25.0,59,0.00,,,0.00,298.35,Custom,2013-04-06 14:49:00,
2013-04-06 09:54:00,62.0,48.0,29.62,SSW,198,14.0,16.0,59,0.00,,,0.00,313.17,Custom,2013-04-06 14:54:00,
2013-04-06 09:59:00,62.7,48.0,29.62,SW,227,8.0,15.0,59,0.00,,,0.00,293.28,Custom,2013-04-06 14:59:00,
2013-04-06 10:04:00,63.8,48.0,29.62,SE,143,11.0,23.0,57,0.00,,,0.00,283.92,Custom,2013-04-06 15:04:00,
2013-04-06 10:09:00,63.1,48.0,29.62,South,187,9.0,22.0,58,0.00,,,0.00,189.93,Custom,2013-04-06 15:09:00,
2013-04-06 10:15:00,62.2,48.0,29.62,SSW,198,8.0,19.0,59,0.00,,,0.00,166.14,Custom,2013-04-06 15:15:00,
2013-04-06 10:20:00,62.1,48.0,29.62,SSW,206,9.0,21.0,61,0.00,,,0.00,237.12,Custom,2013-04-06 15:20:00,
2013-04-06 10:25:00,64.7,50.0,29.62,SW,226,10.0,17.0,59,0.00,,,0.00,520.26,Custom,2013-04-06 15:25:00,
2013-04-06 10:30:00,62.6,48.0,29.62,SSW,203,11.0,15.0,59,0.00,,,0.00,157.17,Custom,2013-04-06 15:30:00,
2013-04-06 10:35:00,65.4,49.0,29.62,South,184,9.0,15.0,56,0.00,,,0.00,759.33,Custom,2013-04-06 15:35:00,
2013-04-06 10:40:00,65.4,49.0,29.62,South,187,15.0,18.0,56,0.00,,,0.00,257.4,Custom,2013-04-06 15:40:00,
2013-04-06 10:45:00,63.5,49.0,29.62,SSW,202,8.0,20.0,58,0.00,,,0.00,218.4,Custom,2013-04-06 15:45:00,
2013-04-06 10:50:00,64.4,50.0,29.62,South,187,12.0,20.0,59,0.00,,,0.00,413.79,Custom,2013-04-06 15:50:00,
2013-04-06 10:55:00,64.9,49.0,29.63,SSW,198,5.0,15.0,57,0.00,,,0.00,319.8,Custom,2013-04-06 15:55:00,
2013-04-06 11:00:00,64.9,49.0,29.63,SSW,195,8.0,17.0,57,0.00,,,0.00,332.67,Custom,2013-04-06 16:00:00,
2013-04-06 11:05:00,66.2,49.0,29.63,SSW,197,13.0,16.0,54,0.00,,,0.00,489.06,Custom,2013-04-06 16:05:00,
2013-04-06 11:10:00,65.1,49.0,29.62,SW,226,8.0,16.0,56,0.00,,,0.00,281.97,Custom,2013-04-06 16:10:00,
2013-04-06 11:16:00,66.5,49.0,29.62,West,267,10.0,14.0,54,0.00,,,0.00,608.4,Custom,2013-04-06 16:16:00,
2013-04-06 11:21:00,67.4,50.0,29.62,SW,230,8.0,17.0,54,0.00,,,0.00,632.19,Custom,2013-04-06 16:21:00,
2013-04-06 11:26:00,67.2,50.0,29.62,South,181,9.0,18.0,54,0.00,,,0.00,707.85,Custom,2013-04-06 16:26:00,
2013-04-06 11:31:00,66.7,49.0,29.62,SSW,193,12.0,18.0,53,0.00,,,0.00,659.88,Custom,2013-04-06 16:31:00,
2013-04-06 11:37:00,69.6,50.0,29.63,SW,225,1.0,15.0,50,0.00,,,0.00,707.46,Custom,2013-04-06 16:37:00,
2013-04-06 11:42:00,69.3,51.0,29.62,SSW,198,5.0,14.0,52,0.00,,,0.00,809.64,Custom,2013-04-06 16:42:00,
2013-04-06 11:47:00,67.7,50.0,29.62,SSE,165,8.0,15.0,52,0.00,,,0.00,276.12,Custom,2013-04-06 16:47:00,
2013-04-06 11:52:00,66.8,50.0,29.62,SSE,158,9.0,16.0,54,0.00,,,0.00,698.1,Custom,2013-04-06 16:52:00,
2013-04-06 11:57:00,66.8,49.0,29.62,SSE,157,13.0,13.0,54,0.00,,,0.00,233.22,Custom,2013-04-06 16:57:00,
2013-04-06 12:02:00,66.6,51.0,29.62,South,189,6.0,21.0,56,0.00,,,0.00,273.78,Custom,2013-04-06 17:02:00,
2013-04-06 12:07:00,66.5,50.0,29.62,SSW,193,3.0,13.0,56,0.00,,,0.00,266.76,Custom,2013-04-06 17:07:00,
2013-04-06 12:12:00,66.3,51.0,29.62,SSW,198,9.0,11.0,57,0.00,,,0.00,418.08,Custom,2013-04-06 17:12:00,
2013-04-06 12:17:00,68.4,52.0,29.62,SW,228,11.0,20.0,56,0.00,,,0.00,430.56,Custom,2013-04-06 17:17:00,
2013-04-06 12:22:00,69.2,52.0,29.61,SSW,209,14.0,20.0,55,0.00,,,0.00,917.28,Custom,2013-04-06 17:22:00,
2013-04-06 12:27:00,69.8,51.0,29.62,SSW,193,5.0,20.0,51,0.00,,,0.00,574.47,Custom,2013-04-06 17:27:00,
2013-04-06 12:32:00,68.8,50.0,29.61,South,169,7.0,15.0,51,0.00,,,0.00,624.78,Custom,2013-04-06 17:32:00,
2013-04-06 12:37:00,68.9,51.0,29.61,South,178,8.0,15.0,53,0.00,,,0.00,565.89,Custom,2013-04-06 17:37:00,
2013-04-06 12:42:00,68.8,50.0,29.61,South,181,11.0,14.0,52,0.00,,,0.00,364.26,Custom,2013-04-06 17:42:00,
2013-04-06 12:47:00,68.0,50.0,29.61,SSW,208,5.0,16.0,52,0.00,,,0.00,304.98,Custom,2013-04-06 17:47:00,
2013-04-06 12:52:00,67.2,50.0,29.62,South,183,8.0,13.0,55,0.00,,,0.00,155.61,Custom,2013-04-06 17:52:00,
2013-04-06 12:57:00,66.2,50.0,29.61,SSW,192,8.0,14.0,57,0.00,,,0.00,162.24,Custom,2013-04-06 17:57:00,
2013-04-06 13:02:00,66.1,50.0,29.61,SSW,198,7.0,13.0,56,0.00,,,0.00,204.75,Custom,2013-04-06 18:02:00,
2013-04-06 13:08:00,66.4,50.0,29.61,SSW,195,2.0,14.0,56,0.00,,,0.00,233.61,Custom,2013-04-06 18:08:00,
2013-04-06 13:13:00,68.3,52.0,29.60,SSW,210,4.0,9.0,56,0.00,,,0.00,624.78,Custom,2013-04-06 18:13:00,
2013-04-06 13:18:00,70.3,53.0,29.61,SW,234,4.0,5.0,55,0.00,,,0.00,899.73,Custom,2013-04-06 18:18:00,
2013-04-06 13:23:00,72.1,51.0,29.61,South,186,6.0,6.0,47,0.00,,,0.00,912.99,Custom,2013-04-06 18:23:00,
2013-04-06 13:29:00,72.6,52.0,29.60,WSW,238,7.0,15.0,49,0.00,,,0.00,967.98,Custom,2013-04-06 18:29:00,
2013-04-06 13:34:00,72.1,51.0,29.61,SW,215,4.0,8.0,48,0.00,,,0.00,877.89,Custom,2013-04-06 18:34:00,
2013-04-06 13:39:00,71.8,51.0,29.60,SE,135,0.0,13.0,47,0.00,,,0.00,280.02,Custom,2013-04-06 18:39:00,
2013-04-06 13:44:00,72.8,51.0,29.60,SSW,196,4.0,13.0,46,0.00,,,0.00,336.96,Custom,2013-04-06 18:44:00,
2013-04-06 13:49:00,71.3,51.0,29.60,South,190,9.0,11.0,50,0.00,,,0.00,806.91,Custom,2013-04-06 18:49:00,
2013-04-06 13:54:00,72.1,52.0,29.60,SW,216,4.0,14.0,49,0.00,,,0.00,953.16,Custom,2013-04-06 18:54:00,
2013-04-06 13:59:00,73.7,51.0,29.60,WSW,249,8.0,10.0,45,0.00,,,0.00,869.31,Custom,2013-04-06 18:59:00,
2013-04-06 14:05:00,75.0,52.0,29.60,South,174,4.0,9.0,44,0.00,,,0.00,844.74,Custom,2013-04-06 19:05:00,
2013-04-06 14:10:00,75.2,53.0,29.60,SW,221,6.0,9.0,47,0.00,,,0.00,840.84,Custom,2013-04-06 19:10:00,
2013-04-06 14:15:00,75.2,53.0,29.60,SSW,203,2.0,12.0,46,0.00,,,0.00,839.67,Custom,2013-04-06 19:15:00,
2013-04-06 14:20:00,75.2,52.0,29.59,WSW,252,0.0,14.0,45,0.00,,,0.00,839.67,Custom,2013-04-06 19:20:00,
2013-04-06 14:25:00,76.4,52.0,29.59,SSW,204,7.0,7.0,43,0.00,,,0.00,831.87,Custom,2013-04-06 19:25:00,
2013-04-06 14:30:00,75.7,52.0,29.58,SSW,212,8.0,13.0,44,0.00,,,0.00,818.22,Custom,2013-04-06 19:30:00,
2013-04-06 14:35:00,75.2,53.0,29.59,SSW,195,10.0,13.0,46,0.00,,,0.00,852.54,Custom,2013-04-06 19:35:00,
2013-04-06 14:40:00,75.6,54.0,29.59,West,266,0.0,12.0,47,0.00,,,0.00,810.42,Custom,2013-04-06 19:40:00,
2013-04-06 14:45:00,76.9,53.0,29.59,SSW,206,0.0,12.0,44,0.00,,,0.00,834.99,Custom,2013-04-06 19:45:00,
2013-04-06 14:50:00,76.6,52.0,29.58,WSW,239,2.0,6.0,42,0.00,,,0.00,791.7,Custom,2013-04-06 19:50:00,
2013-04-06 14:55:00,77.2,53.0,29.58,SW,234,0.0,9.0,43,0.00,,,0.00,774.93,Custom,2013-04-06 19:55:00,
2013-04-06 15:00:00,77.3,53.0,29.58,SW,221,0.0,11.0,42,0.00,,,0.00,772.2,Custom,2013-04-06 20:00:00,
2013-04-06 15:05:00,77.2,53.0,29.58,SSW,203,4.0,11.0,42,0.00,,,0.00,841.62,Custom,2013-04-06 20:05:00,
2013-04-06 15:10:00,77.2,52.0,29.57,WNW,282,7.0,13.0,41,0.00,,,0.00,781.17,Custom,2013-04-06 20:10:00,
2013-04-06 15:15:00,77.0,53.0,29.58,SW,228,4.0,7.0,43,0.00,,,0.00,742.17,Custom,2013-04-06 20:15:00,
2013-04-06 15:20:00,77.6,51.0,29.58,WSW,253,3.0,4.0,40,0.00,,,0.00,756.99,Custom,2013-04-06 20:20:00,
2013-04-06 15:25:00,77.0,50.0,29.57,WNW,282,5.0,6.0,39,0.00,,,0.00,728.52,Custom,2013-04-06 20:25:00,
2013-04-06 15:30:00,77.8,54.0,29.57,SSW,209,0.0,9.0,43,0.00,,,0.00,689.91,Custom,2013-04-06 20:30:00,
2013-04-06 15:35:00,78.1,52.0,29.57,SSW,200,3.0,9.0,41,0.00,,,0.00,682.5,Custom,2013-04-06 20:35:00,
2013-04-06 15:40:00,79.1,54.0,29.57,South,189,4.0,6.0,42,0.00,,,0.00,677.43,Custom,2013-04-06 20:40:00,
2013-04-06 15:45:00,78.9,53.0,29.57,West,270,0.0,14.0,41,0.00,,,0.00,670.02,Custom,2013-04-06 20:45:00,
2013-04-06 15:50:00,78.4,51.0,29.57,SSW,213,4.0,8.0,39,0.00,,,0.00,657.93,Custom,2013-04-06 20:50:00,
2013-04-06 15:55:00,78.3,53.0,29.58,SSW,205,4.0,11.0,41,0.00,,,0.00,686.79,Custom,2013-04-06 20:55:00,
2013-04-06 16:01:00,79.5,51.0,29.58,WNW,282,4.0,4.0,37,0.00,,,0.00,146.64,Custom,2013-04-06 21:01:00,
2013-04-06 16:06:00,78.2,53.0,29.57,SSW,195,3.0,8.0,42,0.00,,,0.00,658.32,Custom,2013-04-06 21:06:00,
2013-04-06 16:11:00,79.2,53.0,29.57,SSE,157,2.0,6.0,41,0.00,,,0.00,592.8,Custom,2013-04-06 21:11:00,
2013-04-06 16:17:00,78.0,52.0,29.57,SSE,164,5.0,12.0,41,0.00,,,0.00,599.04,Custom,2013-04-06 21:17:00,
2013-04-06 16:22:00,76.4,51.0,29.57,WSW,251,3.0,12.0,41,0.00,,,0.00,639.99,Custom,2013-04-06 21:22:00,
2013-04-06 16:27:00,77.0,52.0,29.57,SSW,208,7.0,12.0,41,0.00,,,0.00,204.36,Custom,2013-04-06 21:27:00,
2013-04-06 16:32:00,77.8,52.0,29.57,SSW,196,4.0,9.0,41,0.00,,,0.00,584.22,Custom,2013-04-06 21:32:00,
2013-04-06 16:37:00,76.2,51.0,29.58,SW,220,5.0,9.0,41,0.00,,,0.00,143.91,Custom,2013-04-06 21:37:00,
2013-04-06 16:42:00,77.7,54.0,29.57,SSW,194,2.0,7.0,44,0.00,,,0.00,172.77,Custom,2013-04-06 21:42:00,
2013-04-06 16:47:00,75.2,51.0,29.58,SW,221,10.0,10.0,43,0.00,,,0.00,157.17,Custom,2013-04-06 21:47:00,
2013-04-06 16:52:00,75.3,53.0,29.58,South,187,0.0,11.0,45,0.00,,,0.00,143.13,Custom,2013-04-06 21:52:00,
2013-04-06 16:57:00,75.1,51.0,29.58,SSW,198,1.0,6.0,44,0.00,,,0.00,159.9,Custom,2013-04-06 21:57:00,
2013-04-06 17:02:00,75.1,51.0,29.58,WNW,298,4.0,7.0,44,0.00,,,0.00,144.69,Custom,2013-04-06 22:02:00,
2013-04-06 17:07:00,77.0,50.0,29.58,West,273,0.0,7.0,39,0.00,,,0.00,434.85,Custom,2013-04-06 22:07:00,
2013-04-06 17:12:00,79.0,49.0,29.58,WNW,289,0.0,5.0,35,0.00,,,0.00,253.11,Custom,2013-04-06 22:12:00,
2013-04-06 17:17:00,77.9,48.0,29.59,West,274,0.0,9.0,35,0.00,,,0.00,84.63,Custom,2013-04-06 22:17:00,
2013-04-06 17:22:00,76.9,47.0,29.58,WNW,282,0.0,6.0,34,0.00,,,0.00,188.37,Custom,2013-04-06 22:22:00,
2013-04-06 17:27:00,77.0,47.0,29.59,WNW,291,0.0,9.0,34,0.00,,,0.00,137.28,Custom,2013-04-06 22:27:00,
2013-04-06 17:32:00,77.3,47.0,29.59,WNW,300,2.0,8.0,34,0.00,,,0.00,140.79,Custom,2013-04-06 22:32:00,
2013-04-06 17:37:00,77.2,46.0,29.59,West,273,3.0,7.0,33,0.00,,,0.00,135.72,Custom,2013-04-06 22:37:00,
2013-04-06 17:42:00,76.9,46.0,29.60,West,276,3.0,7.0,34,0.00,,,0.00,83.46,Custom,2013-04-06 22:42:00,
2013-04-06 17:47:00,76.7,45.0,29.59,WSW,252,2.0,3.0,33,0.00,,,0.00,120.12,Custom,2013-04-06 22:47:00,
2013-04-06 17:52:00,76.3,45.0,29.60,WNW,297,3.0,10.0,33,0.00,,,0.00,120.51,Custom,2013-04-06 22:52:00,
2013-04-06 17:58:00,76.2,45.0,29.60,West,278,0.0,7.0,33,0.00,,,0.00,68.25,Custom,2013-04-06 22:58:00,
2013-04-06 18:03:00,76.2,45.0,29.61,NW,307,3.0,3.0,33,0.00,,,0.00,75.66,Custom,2013-04-06 23:03:00,
2013-04-06 18:08:00,76.0,45.0,29.61,WNW,294,1.0,6.0,33,0.00,,,0.00,75.66,Custom,2013-04-06 23:08:00,
2013-04-06 18:13:00,75.3,43.0,29.61,West,267,2.0,7.0,31,0.00,,,0.00,76.83,Custom,2013-04-06 23:13:00,
2013-04-06 18:18:00,75.3,44.0,29.62,WNW,288,3.0,6.0,33,0.00,,,0.00,65.52,Custom,2013-04-06 23:18:00,
2013-04-06 18:24:00,74.4,43.0,29.62,WNW,290,0.0,7.0,33,0.00,,,0.00,50.31,Custom,2013-04-06 23:24:00,
2013-04-06 18:29:00,73.4,44.0,29.62,WNW,285,4.0,4.0,34,0.00,,,0.00,56.16,Custom,2013-04-06 23:29:00,
2013-04-06 18:34:00,73.3,44.0,29.62,WNW,287,0.0,6.0,35,0.00,,,0.00,57.72,Custom,2013-04-06 23:34:00,
2013-04-06 18:39:00,72.9,44.0,29.62,WNW,289,0.0,5.0,35,0.00,,,0.00,59.67,Custom,2013-04-06 23:39:00,
2013-04-06 18:44:00,72.9,44.0,29.62,WNW,285,0.0,2.0,36,0.00,,,0.00,62.4,Custom,2013-04-06 23:44:00,
2013-04-06 18:49:00,72.8,44.0,29.62,West,271,0.0,3.0,36,0.00,,,0.00,58.5,Custom,2013-04-06 23:49:00,
2013-04-06 18:54:00,72.4,44.0,29.63,West,281,2.0,3.0,36,0.00,,,0.00,53.43,Custom,2013-04-06 23:54:00,
2013-04-06 18:59:00,72.4,44.0,29.63,WNW,286,0.0,3.0,36,0.00,,,0.00,49.14,Custom,2013-04-06 23:59:00,
2013-04-06 19:05:00,72.2,45.0,29.63,West,273,0.0,3.0,37,0.00,,,0.00,41.73,Custom,2013-04-07 00:05:00,
2013-04-06 19:10:00,71.9,44.0,29.64,West,274,0.0,1.0,37,0.00,,,0.00,37.05,Custom,2013-04-07 00:10:00,
2013-04-06 19:15:00,72.2,44.0,29.64,WNW,285,0.0,6.0,37,0.00,,,0.00,33.15,Custom,2013-04-07 00:15:00,
2013-04-06 19:21:00,71.3,44.0,29.64,WNW,284,1.0,2.0,38,0.00,,,0.00,24.57,Custom,2013-04-07 00:21:00,
2013-04-06 19:26:00,70.9,44.0,29.64,WNW,285,0.0,2.0,38,0.00,,,0.00,18.72,Custom,2013-04-07 00:26:00,
2013-04-06 19:31:00,70.3,45.0,29.64,WNW,285,0.0,1.0,40,0.00,,,0.00,13.26,Custom,2013-04-07 00:31:00,
2013-04-06 19:36:00,69.4,44.0,29.65,WNW,285,0.0,1.0,40,0.00,,,0.00,8.97,Custom,2013-04-07 00:36:00,
2013-04-06 19:42:00,68.4,45.0,29.65,North,360,5.0,0.0,42,0.00,,,0.00,0,Custom,2013-04-07 00:42:00,
2013-04-06 19:47:00,68.6,45.0,29.65,WNW,298,0.0,4.0,43,0.00,,,0.00,0,Custom,2013-04-07 00:47:00,
2013-04-06 19:52:00,68.3,45.0,29.66,NNW,335,0.0,6.0,44,0.00,,,0.00,0,Custom,2013-04-07 00:52:00,
2013-04-06 19:57:00,67.7,45.0,29.66,North,349,0.0,6.0,44,0.00,,,0.00,0,Custom,2013-04-07 00:57:00,
2013-04-06 20:02:00,67.4,45.0,29.66,North,349,0.0,1.0,45,0.00,,,0.00,0,Custom,2013-04-07 01:02:00,
2013-04-06 20:07:00,67.1,46.0,29.66,North,349,0.0,0.0,46,0.00,,,0.00,0,Custom,2013-04-07 01:07:00,
2013-04-06 20:12:00,66.9,45.0,29.67,North,349,0.0,0.0,46,0.00,,,0.00,0,Custom,2013-04-07 01:12:00,
2013-04-06 20:17:00,66.2,45.0,29.67,North,349,0.0,0.0,47,0.00,,,0.00,0,Custom,2013-04-07 01:17:00,
2013-04-06 20:22:00,65.7,45.0,29.67,North,349,0.0,0.0,48,0.00,,,0.00,0,Custom,2013-04-07 01:22:00,
2013-04-06 20:27:00,65.2,45.0,29.67,North,349,0.0,0.0,49,0.00,,,0.00,0,Custom,2013-04-07 01:27:00,
2013-04-06 20:32:00,65.0,46.0,29.67,North,349,0.0,0.0,49,0.00,,,0.00,0,Custom,2013-04-07 01:32:00,
2013-04-06 20:37:00,65.3,46.0,29.68,North,349,0.0,2.0,49,0.00,,,0.00,0,Custom,2013-04-07 01:37:00,
2013-04-06 20:42:00,65.3,46.0,29.68,North,349,0.0,0.0,50,0.00,,,0.00,0,Custom,2013-04-07 01:42:00,
2013-04-06 20:47:00,64.2,45.0,29.67,North,349,0.0,0.0,50,0.00,,,0.00,0,Custom,2013-04-07 01:47:00,
2013-04-06 20:52:00,64.2,46.0,29.68,North,349,0.0,0.0,50,0.00,,,0.00,0,Custom,2013-04-07 01:52:00,
2013-04-06 20:57:00,64.3,46.0,29.68,North,349,0.0,0.0,51,0.00,,,0.00,0,Custom,2013-04-07 01:57:00,
2013-04-06 21:02:00,63.7,45.0,29.68,North,349,0.0,1.0,51,0.00,,,0.00,0,Custom,2013-04-07 02:02:00,
2013-04-06 21:07:00,63.2,45.0,29.68,North,349,0.0,0.0,51,0.00,,,0.00,0,Custom,2013-04-07 02:07:00,
2013-04-06 21:12:00,62.7,45.0,29.68,North,349,0.0,0.0,52,0.00,,,0.00,0,Custom,2013-04-07 02:12:00,
2013-04-06 21:17:00,62.4,45.0,29.69,North,349,0.0,0.0,52,0.00,,,0.00,0,Custom,2013-04-07 02:17:00,
2013-04-06 21:23:00,62.2,45.0,29.69,North,349,0.0,0.0,54,0.00,,,0.00,0,Custom,2013-04-07 02:23:00,
2013-04-06 21:29:00,62.1,45.0,29.69,North,349,0.0,0.0,54,0.00,,,0.00,0,Custom,2013-04-07 02:29:00,
2013-04-06 21:34:00,62.1,45.0,29.69,North,349,0.0,0.0,53,0.00,,,0.00,0,Custom,2013-04-07 02:34:00,
2013-04-06 21:39:00,61.3,45.0,29.69,North,349,0.0,0.0,54,0.00,,,0.00,0,Custom,2013-04-07 02:39:00,
2013-04-06 21:44:00,61.0,44.0,29.70,North,349,0.0,0.0,54,0.00,,,0.00,0,Custom,2013-04-07 02:44:00,
2013-04-06 21:49:00,61.0,45.0,29.71,North,349,0.0,0.0,55,0.00,,,0.00,0,Custom,2013-04-07 02:49:00,
2013-04-06 21:54:00,61.0,45.0,29.70,North,349,0.0,0.0,55,0.00,,,0.00,0,Custom,2013-04-07 02:54:00,
2013-04-06 22:00:00,60.8,45.0,29.71,North,349,0.0,0.0,55,0.00,,,0.00,0,Custom,2013-04-07 03:00:00,
2013-04-06 22:05:00,60.7,44.0,29.72,North,349,0.0,0.0,55,0.00,,,0.00,0,Custom,2013-04-07 03:05:00,
2013-04-06 22:10:00,60.3,44.0,29.72,North,349,0.0,0.0,54,0.00,,,0.00,0,Custom,2013-04-07 03:10:00,
2013-04-06 22:15:00,58.9,45.0,29.72,North,349,0.0,0.0,59,0.00,,,0.00,0,Custom,2013-04-07 03:15:00,
2013-04-06 22:20:00,58.0,44.0,29.72,North,349,0.0,0.0,61,0.00,,,0.00,0,Custom,2013-04-07 03:20:00,
2013-04-06 22:25:00,57.7,44.0,29.72,North,349,0.0,0.0,61,0.00,,,0.00,0,Custom,2013-04-07 03:25:00,
2013-04-06 22:31:00,57.2,44.0,29.72,North,349,0.0,0.0,62,0.00,,,0.00,0,Custom,2013-04-07 03:31:00,
2013-04-06 22:37:00,56.8,44.0,29.72,North,349,0.0,0.0,62,0.00,,,0.00,0,Custom,2013-04-07 03:37:00,
2013-04-06 22:42:00,56.8,44.0,29.72,North,349,0.0,0.0,62,0.00,,,0.00,0,Custom,2013-04-07 03:42:00,
2013-04-06 22:47:00,56.7,44.0,29.72,North,349,0.0,0.0,62,0.00,,,0.00,0,Custom,2013-04-07 03:47:00,
2013-04-06 22:52:00,56.7,44.0,29.72,North,349,0.0,0.0,62,0.00,,,0.00,0,Custom,2013-04-07 03:52:00,
2013-04-06 22:57:00,56.9,44.0,29.72,North,349,0.0,0.0,63,0.00,,,0.00,0,Custom,2013-04-07 03:57:00,
2013-04-06 23:00:00,56.5,44.0,29.72,North,349,0.0,0.0,63,0.00,,,0.00,0,Custom,2013-04-07 04:00:00,
2013-04-06 23:01:00,56.5,44.0,29.72,North,349,0.0,0.0,64,0.00,,,0.00,0,Custom,2013-04-07 04:01:00,
2013-04-06 23:06:00,56.0,44.0,29.72,North,349,0.0,0.0,64,0.00,,,0.00,0,Custom,2013-04-07 04:06:00,
2013-04-06 23:11:00,56.0,44.0,29.72,North,349,0.0,0.0,63,0.00,,,0.00,0,Custom,2013-04-07 04:11:00,
2013-04-06 23:16:00,56.0,44.0,29.72,North,349,0.0,0.0,63,0.00,,,0.00,0,Custom,2013-04-07 04:16:00,
2013-04-06 23:21:00,56.0,44.0,29.72,North,349,0.0,0.0,64,0.00,,,0.00,0,Custom,2013-04-07 04:21:00,
2013-04-06 23:26:00,55.4,44.0,29.72,North,349,0.0,0.0,65,0.00,,,0.00,0,Custom,2013-04-07 04:26:00,
2013-04-06 23:32:00,55.2,44.0,29.72,North,349,0.0,0.0,65,0.00,,,0.00,0,Custom,2013-04-07 04:32:00,
2013-04-06 23:37:00,54.8,44.0,29.72,North,349,0.0,0.0,67,0.00,,,0.00,0,Custom,2013-04-07 04:37:00,
2013-04-06 23:42:00,54.8,44.0,29.72,North,349,0.0,0.0,66,0.00,,,0.00,0,Custom,2013-04-07 04:42:00,
2013-04-06 23:47:00,54.8,44.0,29.72,North,349,0.0,0.0,66,0.00,,,0.00,0,Custom,2013-04-07 04:47:00,
2013-04-06 23:52:00,54.1,44.0,29.72,North,349,0.0,0.0,67,0.00,,,0.00,0,Custom,2013-04-07 04:52:00,
2013-04-06 23:57:00,53.7,43.0,29.72,North,349,0.0,0.0,68,0.00,,,0.00,0,Custom,2013-04-07 04:57:00,